PBO Station Position Time Series. Reference Frame : NAM14
Format Version,1.1.1
4-character ID,P670
Station name,LVManzLakeCN2007
Begin Date, 2007-09-15
End Date, 2023-06-26
Release Date, 2023-06-27
Reference position, 40.5399053290 North Latitude, -121.5771971198 East Longitude, 1731.74065 meters elevation,
Date, North (mm), East (mm), Vertical (mm), North Std. Deviation (mm), East Std. Deviation (mm),              Vertical Std. Deviation (mm), Quality,
2007-09-15,0.00, 0.00, 0.00, 2.26, 1.74, 7.80, repro,
2007-09-16,0.54, -0.61, 3.37, 2.15, 1.65, 7.42, repro,
2007-09-17,-1.03, -1.57, 9.51, 2.25, 1.76, 7.88, repro,
2007-09-18,1.00, -2.03, 1.79, 2.11, 1.66, 7.41, repro,
2007-09-19,1.30, -1.72, 2.71, 2.10, 1.61, 7.30, repro,
2007-09-20,2.25, 0.41, -9.74, 2.09, 1.59, 7.26, repro,
2007-09-21,1.70, 0.28, 2.51, 2.12, 1.61, 7.35, repro,
2007-09-22,0.51, 0.48, 2.39, 2.10, 1.60, 7.24, repro,
2007-09-23,-0.42, -0.46, 8.70, 2.16, 1.64, 7.43, repro,
2007-09-24,0.21, 0.62, -2.02, 2.23, 1.71, 7.85, repro,
2007-09-25,-1.15, 0.71, -5.47, 2.17, 1.62, 7.51, repro,
2007-09-26,1.21, -0.26, 5.95, 2.09, 1.58, 7.17, repro,
2007-09-27,-0.10, -0.39, 3.70, 2.12, 1.62, 7.35, repro,
2007-09-28,-1.16, 0.17, 4.47, 2.09, 1.67, 7.41, repro,
2007-09-29,2.50, 0.16, -10.71, 2.19, 1.73, 7.82, repro,
2007-09-30,-0.53, 0.45, 1.42, 2.17, 1.69, 7.61, repro,
2007-10-01,0.17, 0.54, 1.24, 2.16, 1.68, 7.54, repro,
2007-10-02,0.12, 1.54, 5.91, 2.17, 1.72, 7.66, repro,
2007-10-03,1.15, 0.51, 4.71, 2.16, 1.71, 7.62, repro,
2007-10-04,-0.30, -1.09, 13.20, 2.14, 1.65, 7.47, repro,
2007-10-05,3.52, 1.59, 7.79, 2.18, 1.74, 7.77, repro,
2007-10-06,1.64, 1.82, 6.74, 2.16, 1.69, 7.55, repro,
2007-10-07,2.61, 1.54, 0.76, 2.19, 1.69, 7.62, repro,
2007-10-08,-0.11, 0.09, 1.81, 2.40, 1.79, 8.28, repro,
2007-10-09,-4.15, 0.14, 0.22, 2.35, 1.91, 8.47, repro,
2007-10-10,-1.19, 0.25, -7.14, 2.27, 1.73, 7.87, repro,
2007-10-11,1.32, 1.16, -4.38, 2.14, 1.68, 7.52, repro,
2007-10-12,-0.07, -0.99, 5.63, 2.14, 1.68, 7.61, repro,
2007-10-13,1.25, 1.21, 5.91, 2.07, 1.61, 7.28, repro,
2007-10-14,-0.21, 0.27, -1.05, 2.06, 1.62, 7.26, repro,
2007-10-15,-4.45, -1.37, 5.38, 2.08, 1.65, 7.42, repro,
2007-10-16,-2.35, 0.49, 4.32, 2.08, 1.63, 7.28, repro,
2007-10-17,-1.16, 1.39, 7.39, 2.12, 1.65, 7.45, repro,
2007-10-18,1.69, 1.65, -0.61, 2.09, 1.62, 7.34, repro,
2007-10-19,-0.72, 0.51, 13.77, 2.05, 1.58, 7.19, repro,
2007-10-20,-2.47, 1.39, 11.61, 2.12, 1.67, 7.45, repro,
2007-10-21,2.36, 0.47, -0.08, 2.08, 1.64, 7.41, repro,
2007-10-22,2.16, 0.46, -4.91, 2.09, 1.61, 7.34, repro,
2007-10-23,0.97, 1.36, -5.98, 2.15, 1.68, 7.54, repro,
2007-10-24,-0.73, 0.97, -2.44, 2.20, 1.73, 7.78, repro,
2007-10-25,0.12, 0.10, -5.55, 2.07, 1.62, 7.27, repro,
2007-10-26,0.35, -0.20, -0.85, 2.08, 1.68, 7.38, repro,
2007-10-27,1.84, -1.75, 1.08, 2.09, 1.63, 7.33, repro,
2007-10-28,-0.40, 0.09, -3.03, 2.07, 1.61, 7.22, repro,
2007-10-29,-0.25, -1.48, -0.09, 2.14, 1.68, 7.49, repro,
2007-10-30,0.56, 0.58, 0.76, 2.09, 1.62, 7.35, repro,
2007-10-31,0.72, 0.71, -4.91, 2.07, 1.63, 7.34, repro,
2007-11-01,1.89, 0.73, -9.61, 2.04, 1.60, 7.20, repro,
2007-11-02,1.53, 1.56, -6.34, 2.04, 1.58, 7.09, repro,
2007-11-03,2.15, 1.02, -5.73, 2.05, 1.58, 7.13, repro,
2007-11-04,0.40, 0.04, -0.84, 2.06, 1.59, 7.16, repro,
2007-11-05,0.68, 0.37, -7.58, 2.03, 1.58, 7.06, repro,
2007-11-06,-0.21, -0.71, -3.99, 2.11, 1.69, 7.56, repro,
2007-11-07,0.92, -0.15, -6.49, 2.09, 1.63, 7.30, repro,
2007-11-08,0.21, 0.56, -2.26, 2.12, 1.65, 7.34, repro,
2007-11-09,-1.39, -1.40, -1.84, 2.09, 1.62, 7.29, repro,
2007-11-10,-0.49, -0.83, 1.92, 2.03, 1.58, 7.14, repro,
2007-11-11,0.98, 0.31, -4.36, 2.03, 1.59, 7.14, repro,
2007-11-12,0.25, -1.71, 3.04, 2.09, 1.62, 7.27, repro,
2007-11-13,2.95, 0.67, -7.28, 2.07, 1.61, 7.22, repro,
2007-11-14,0.89, 0.51, -7.05, 2.07, 1.60, 7.21, repro,
2007-11-15,1.41, -0.10, -9.17, 2.08, 1.60, 7.27, repro,
2007-11-16,1.45, -0.08, -7.17, 2.04, 1.59, 7.18, repro,
2007-11-17,0.87, -0.90, -3.28, 2.03, 1.58, 7.09, repro,
2007-11-18,1.47, 0.32, -2.87, 2.04, 1.60, 7.19, repro,
2007-11-19,0.56, 0.65, 3.20, 2.04, 1.59, 7.16, repro,
2007-11-20,1.00, 0.85, -6.21, 2.06, 1.63, 7.26, repro,
2007-11-21,2.43, -0.27, -5.65, 2.15, 1.69, 7.55, repro,
2007-11-22,1.50, 0.56, -6.41, 2.04, 1.60, 7.20, repro,
2007-11-23,2.81, -0.78, -6.96, 2.06, 1.66, 7.33, repro,
2007-11-24,1.45, -0.81, -4.17, 2.13, 1.69, 7.43, repro,
2007-11-25,1.23, -1.13, 1.52, 2.15, 1.74, 7.51, repro,
2007-11-26,2.41, -0.58, -9.68, 2.16, 1.73, 7.62, repro,
2007-11-27,1.44, 0.49, -3.17, 2.12, 1.69, 7.46, repro,
2007-11-28,2.82, -1.02, -6.61, 2.11, 1.70, 7.46, repro,
2007-11-29,0.61, -1.46, -2.78, 2.11, 1.68, 7.48, repro,
2007-11-30,1.59, 0.59, -6.18, 2.11, 1.67, 7.28, repro,
2007-12-01,0.84, 0.09, 3.16, 2.22, 1.79, 7.85, repro,
2007-12-02,-1.09, 1.01, -4.78, 2.13, 1.72, 7.71, repro,
2007-12-03,-1.46, 4.51, -4.58, 2.18, 1.75, 7.91, repro,
2007-12-04,0.61, -0.97, -7.27, 2.20, 1.81, 7.88, repro,
2007-12-05,1.52, 0.07, -1.79, 2.23, 1.84, 8.17, repro,
2007-12-06,2.69, 0.70, -3.06, 2.26, 1.82, 8.13, repro,
2007-12-07,1.10, 2.08, -7.33, 2.24, 1.85, 8.11, repro,
2007-12-08,2.07, -0.62, -9.87, 2.13, 1.73, 7.51, repro,
2007-12-09,3.04, -1.75, -9.83, 2.42, 2.13, 8.90, repro,
2007-12-10,3.62, 0.22, -10.23, 2.15, 1.77, 7.61, repro,
2007-12-11,1.84, -0.07, -5.50, 2.18, 1.72, 7.58, repro,
2007-12-12,1.88, -0.11, -5.90, 2.24, 1.74, 7.83, repro,
2007-12-13,2.50, 0.43, -11.54, 2.19, 1.72, 7.65, repro,
2007-12-14,2.06, 0.93, -7.70, 2.09, 1.63, 7.37, repro,
2007-12-15,-0.70, 0.13, 1.36, 2.11, 1.63, 7.41, repro,
2007-12-16,0.73, 0.26, -5.20, 2.10, 1.61, 7.34, repro,
2007-12-17,1.14, -0.25, 0.42, 2.16, 1.66, 7.44, repro,
2007-12-18,-0.12, 0.44, 5.19, 2.08, 1.60, 7.26, repro,
2007-12-19,1.17, 0.79, -2.97, 2.11, 1.66, 7.46, repro,
2007-12-20,1.12, -1.37, 4.49, 2.14, 1.66, 7.51, repro,
2007-12-21,1.94, -0.91, -10.88, 2.17, 1.69, 7.62, repro,
2007-12-22,1.32, -0.49, -11.13, 2.21, 1.74, 7.89, repro,
2007-12-23,0.74, 0.85, -15.03, 2.15, 1.70, 7.56, repro,
2007-12-24,1.43, 1.41, -1.28, 2.11, 1.64, 7.42, repro,
2007-12-25,1.45, -0.95, -5.42, 2.10, 1.64, 7.35, repro,
2007-12-26,1.79, -0.47, -2.67, 2.10, 1.63, 7.34, repro,
2007-12-27,1.59, -0.86, -2.47, 2.17, 1.69, 7.64, repro,
2007-12-28,-0.56, 0.15, -4.40, 2.22, 1.71, 7.67, repro,
2007-12-29,-0.49, 2.46, -12.23, 2.13, 1.62, 7.38, repro,
2007-12-30,0.60, 0.32, -1.66, 2.12, 1.62, 7.39, repro,
2007-12-31,3.62, 0.43, -12.57, 2.12, 1.63, 7.44, repro,
2008-01-01,1.69, 0.27, -9.65, 2.10, 1.60, 7.33, repro,
2008-01-02,0.49, 0.16, -4.10, 2.14, 1.62, 7.37, repro,
2008-01-03,-0.56, 1.03, -2.52, 2.12, 1.60, 7.33, repro,
2008-01-04,-0.29, 6.16, 2.99, 2.08, 1.56, 7.23, repro,
2008-01-05,-1.39, -0.25, 4.10, 2.08, 1.57, 7.24, repro,
2008-01-06,0.15, 0.56, -2.05, 2.08, 1.57, 7.24, repro,
2008-01-07,0.48, -0.07, 5.83, 2.06, 1.56, 7.11, repro,
2008-01-08,0.52, -1.18, -3.41, 2.13, 1.58, 7.32, repro,
2008-01-09,0.25, -1.39, -7.38, 2.13, 1.59, 7.40, repro,
2008-01-10,-2.46, -1.77, -19.01, 2.10, 1.60, 7.40, repro,
2008-01-11,0.78, -1.49, -0.24, 2.08, 1.58, 7.24, repro,
2008-01-12,-0.49, -0.32, -3.37, 2.07, 1.58, 7.21, repro,
2008-01-13,-0.63, -0.57, -8.47, 2.05, 1.57, 7.08, repro,
2008-01-14,-0.28, 0.75, -7.11, 2.06, 1.58, 7.12, repro,
2008-01-15,1.01, -0.01, -3.96, 2.06, 1.59, 7.21, repro,
2008-01-16,-0.70, -1.27, -12.31, 2.10, 1.60, 7.31, repro,
2008-01-17,-0.62, -1.36, -9.43, 2.09, 1.60, 7.27, repro,
2008-01-18,1.69, 0.66, -3.27, 2.06, 1.61, 7.25, repro,
2008-01-19,1.77, 1.04, -10.17, 2.06, 1.57, 7.14, repro,
2008-01-20,-0.40, 0.51, -11.94, 2.07, 1.59, 7.21, repro,
2008-01-21,0.49, 0.75, -13.81, 2.05, 1.57, 7.14, repro,
2008-01-22,0.60, 1.95, -11.88, 2.05, 1.57, 7.12, repro,
2008-01-23,-0.29, 2.00, -11.48, 2.03, 1.57, 7.05, repro,
2008-01-24,1.13, 1.05, -12.17, 2.03, 1.56, 7.05, repro,
2008-01-25,-0.05, 0.56, -20.02, 2.05, 1.57, 7.12, repro,
2008-01-26,-2.90, 4.32, -21.21, 2.06, 1.58, 7.16, repro,
2008-01-27,-0.43, 3.78, -10.31, 2.08, 1.58, 7.19, repro,
2008-01-28,0.24, -0.00, -2.34, 2.06, 1.58, 7.21, repro,
2008-01-29,-0.13, 0.79, -2.75, 2.15, 1.69, 7.54, repro,
2008-01-30,-0.81, -0.29, -12.96, 2.14, 1.65, 7.44, repro,
2008-01-31,-1.82, -0.52, -11.38, 2.07, 1.59, 7.23, repro,
2008-02-01,-0.57, -0.98, -10.91, 2.04, 1.58, 7.17, repro,
2008-02-02,0.01, -1.12, -4.53, 2.04, 1.57, 7.16, repro,
2008-02-03,-0.36, -0.84, -8.13, 2.04, 1.58, 7.19, repro,
2008-02-04,-0.46, 1.51, -23.40, 2.03, 1.58, 7.12, repro,
2008-02-05,1.07, 0.10, -11.39, 2.09, 1.65, 7.39, repro,
2008-02-06,0.62, -2.15, -7.04, 2.09, 1.64, 7.34, repro,
2008-02-07,0.68, -2.28, -4.77, 2.09, 1.61, 7.38, repro,
2008-02-08,-1.36, -0.50, 4.23, 2.06, 1.59, 7.26, repro,
2008-02-09,-1.14, 1.97, -6.81, 2.33, 1.76, 8.08, repro,
2008-02-10,-1.79, 0.88, -7.41, 2.06, 1.60, 7.31, repro,
2008-02-11,-0.20, 1.75, -5.93, 2.07, 1.60, 7.26, repro,
2008-02-12,0.66, 2.13, -7.47, 2.07, 1.58, 7.20, repro,
2008-02-13,0.15, 2.28, -11.58, 2.06, 1.58, 7.21, repro,
2008-02-14,0.68, 0.39, -13.39, 2.04, 1.57, 7.14, repro,
2008-02-15,3.19, 1.98, -14.41, 2.08, 1.64, 7.40, repro,
2008-02-16,-0.05, 1.02, -12.70, 2.06, 1.59, 7.24, repro,
2008-02-17,0.92, 1.40, -14.57, 2.05, 1.59, 7.17, repro,
2008-02-18,0.16, 1.68, -20.04, 2.05, 1.59, 7.16, repro,
2008-02-19,-0.85, -0.06, -6.51, 2.05, 1.59, 7.22, repro,
2008-02-20,0.72, 1.74, -13.61, 2.05, 1.59, 7.26, repro,
2008-02-21,0.54, 0.04, -9.78, 2.05, 1.59, 7.15, repro,
2008-02-22,-0.90, 1.05, -11.65, 2.04, 1.58, 7.10, repro,
2008-02-23,-1.87, 0.22, -1.76, 2.05, 1.58, 7.11, repro,
2008-02-24,-5.12, 0.81, -1.68, 2.05, 1.58, 7.18, repro,
2008-02-25,-1.05, 0.01, -7.45, 2.08, 1.59, 7.32, repro,
2008-02-26,-1.58, 0.48, -11.30, 2.07, 1.59, 7.27, repro,
2008-02-27,-0.36, 1.30, -15.46, 2.11, 1.63, 7.45, repro,
2008-02-28,0.07, 3.35, -8.88, 2.06, 1.59, 7.13, repro,
2008-02-29,-1.51, 2.07, -13.40, 2.06, 1.59, 7.18, repro,
2008-03-01,-0.47, 2.55, -9.69, 2.08, 1.59, 7.30, repro,
2008-03-02,1.28, 2.04, -18.08, 2.09, 1.62, 7.38, repro,
2008-03-03,0.92, 1.64, -19.38, 2.07, 1.58, 7.23, repro,
2008-03-04,0.97, 1.35, -20.07, 2.06, 1.58, 7.13, repro,
2008-03-05,1.99, 2.42, -18.30, 2.14, 1.70, 7.65, repro,
2008-03-06,0.19, 1.48, -15.09, 2.06, 1.60, 7.26, repro,
2008-03-07,-0.22, 0.50, -12.33, 2.08, 1.60, 7.38, repro,
2008-03-08,0.71, 1.36, -20.08, 2.09, 1.63, 7.45, repro,
2008-03-09,0.72, 0.59, -17.66, 2.08, 1.62, 7.39, repro,
2008-03-10,-0.99, -0.08, -18.05, 2.05, 1.58, 7.11, repro,
2008-03-11,-1.21, -0.28, -8.85, 2.06, 1.59, 7.19, repro,
2008-03-12,-0.78, -0.86, -6.83, 2.08, 1.62, 7.36, repro,
2008-03-13,-0.40, -0.66, 1.72, 2.08, 1.62, 7.41, repro,
2008-03-14,-1.58, -0.60, -1.07, 2.06, 1.61, 7.27, repro,
2008-03-15,-0.17, 0.60, -18.47, 2.09, 1.61, 7.37, repro,
2008-03-16,-2.58, -1.27, -9.73, 2.09, 1.62, 7.32, repro,
2008-03-17,1.98, -1.67, -0.79, 2.20, 1.76, 8.00, repro,
2008-03-18,-0.17, -0.99, -3.15, 2.16, 1.69, 7.68, repro,
2008-03-19,-1.05, -0.38, -9.29, 2.07, 1.61, 7.27, repro,
2008-03-20,0.36, -0.25, -13.65, 2.08, 1.62, 7.31, repro,
2008-03-21,-0.96, -0.41, -11.55, 2.09, 1.61, 7.32, repro,
2008-03-22,0.99, -0.27, -14.16, 2.11, 1.61, 7.34, repro,
2008-03-23,0.46, -0.49, -16.69, 2.10, 1.62, 7.40, repro,
2008-03-24,0.63, 0.99, -11.05, 2.07, 1.61, 7.32, repro,
2008-03-25,-1.90, -0.67, -6.56, 2.11, 1.64, 7.41, repro,
2008-03-26,-2.15, 0.79, -10.47, 2.12, 1.64, 7.44, repro,
2008-03-27,-0.49, -0.46, -12.53, 2.12, 1.64, 7.41, repro,
2008-03-28,0.25, 0.34, -10.28, 2.10, 1.62, 7.32, repro,
2008-03-29,1.41, 1.45, -6.99, 2.07, 1.58, 7.24, repro,
2008-03-30,-0.09, -0.55, -9.16, 2.06, 1.57, 7.17, repro,
2008-03-31,0.55, -0.61, -9.47, 2.07, 1.57, 7.20, repro,
2008-04-01,1.30, 0.44, -10.62, 2.08, 1.57, 7.24, repro,
2008-04-02,-0.58, -0.70, -8.88, 2.15, 1.61, 7.50, repro,
2008-04-03,-1.23, 0.87, -12.20, 2.13, 1.61, 7.35, repro,
2008-04-04,-0.49, 1.20, -14.45, 2.06, 1.57, 7.23, repro,
2008-04-05,0.22, -0.02, -5.14, 2.08, 1.58, 7.24, repro,
2008-04-06,-1.18, -0.60, -8.54, 2.07, 1.58, 7.23, repro,
2008-04-07,0.65, 0.62, -13.08, 2.09, 1.59, 7.31, repro,
2008-04-08,-0.41, -1.15, -13.78, 2.07, 1.58, 7.23, repro,
2008-04-09,-0.56, -0.32, -5.21, 2.07, 1.58, 7.21, repro,
2008-04-10,2.48, -0.15, -10.78, 2.09, 1.57, 7.29, repro,
2008-04-11,2.67, 0.38, -17.41, 2.07, 1.58, 7.27, repro,
2008-04-12,1.12, -1.38, -15.10, 2.07, 1.57, 7.24, repro,
2008-04-13,1.06, -0.97, -15.29, 2.08, 1.58, 7.27, repro,
2008-04-14,-0.56, -0.68, -3.69, 2.08, 1.58, 7.30, repro,
2008-04-15,1.44, -0.43, -9.18, 2.11, 1.62, 7.31, repro,
2008-04-16,2.01, -0.31, -7.19, 2.10, 1.62, 7.38, repro,
2008-04-17,0.65, -0.44, -9.20, 2.08, 1.57, 7.28, repro,
2008-04-18,-0.37, -1.68, -11.70, 2.08, 1.58, 7.27, repro,
2008-04-19,-0.98, -1.96, -9.57, 2.07, 1.58, 7.25, repro,
2008-04-20,0.85, -1.22, -13.35, 2.09, 1.57, 7.34, repro,
2008-04-21,-0.90, -1.37, -9.74, 2.10, 1.58, 7.35, repro,
2008-04-22,-0.67, 0.66, -9.39, 2.40, 1.93, 8.76, repro,
2008-04-23,-1.04, -0.54, -9.93, 2.14, 1.63, 7.45, repro,
2008-04-24,-0.46, -0.48, -16.52, 2.11, 1.60, 7.42, repro,
2008-04-25,-0.37, -0.93, -10.28, 2.11, 1.58, 7.37, repro,
2008-04-26,0.46, 0.12, -20.37, 2.19, 1.62, 7.60, repro,
2008-04-27,-1.37, -0.50, -13.70, 2.17, 1.60, 7.46, repro,
2008-04-28,-0.49, -0.84, -13.20, 2.16, 1.58, 7.38, repro,
2008-04-29,0.59, -1.33, -5.91, 2.21, 1.60, 7.47, repro,
2008-04-30,2.16, -0.43, -14.06, 2.17, 1.64, 7.51, repro,
2008-05-01,2.68, -0.13, -15.88, 2.16, 1.61, 7.49, repro,
2008-05-02,0.65, -0.44, -7.16, 2.19, 1.65, 7.62, repro,
2008-05-03,-0.70, -1.19, -8.35, 2.14, 1.60, 7.39, repro,
2008-05-04,-1.14, -1.22, -3.72, 2.10, 1.59, 7.28, repro,
2008-05-05,1.85, 0.17, -9.87, 2.15, 1.61, 7.42, repro,
2008-05-06,0.88, -2.48, -12.05, 2.14, 1.62, 7.50, repro,
2008-05-07,2.57, -1.17, -9.92, 2.13, 1.59, 7.45, repro,
2008-05-08,1.03, -0.96, -6.86, 2.18, 1.65, 7.60, repro,
2008-05-09,-0.62, -0.49, -6.83, 2.12, 1.59, 7.35, repro,
2008-05-10,-0.50, -1.09, -9.10, 2.09, 1.56, 7.24, repro,
2008-05-11,-0.73, -1.41, -4.35, 2.12, 1.60, 7.36, repro,
2008-05-12,2.71, -0.57, -7.44, 2.20, 1.65, 7.71, repro,
2008-05-13,1.84, -0.46, -5.44, 2.17, 1.63, 7.55, repro,
2008-05-14,1.95, 0.28, -23.97, 2.09, 1.57, 7.29, repro,
2008-05-15,4.99, 3.30, -10.84, 2.11, 1.57, 7.29, repro,
2008-05-16,1.60, 1.23, -14.50, 2.12, 1.58, 7.30, repro,
2008-05-17,-0.09, -1.49, -10.76, 2.14, 1.59, 7.37, repro,
2008-05-18,-2.01, -0.05, -6.92, 2.15, 1.61, 7.46, repro,
2008-05-19,-0.36, -0.75, -4.50, 2.09, 1.56, 7.26, repro,
2008-05-20,-0.23, -0.95, -0.81, 2.09, 1.56, 7.24, repro,
2008-05-21,1.55, -0.98, -8.42, 2.09, 1.57, 7.28, repro,
2008-05-22,-2.47, -2.14, 4.35, 2.09, 1.60, 7.36, repro,
2008-05-23,2.21, 0.48, 0.46, 2.10, 1.60, 7.45, repro,
2008-05-24,0.49, -1.45, -5.12, 2.11, 1.57, 7.33, repro,
2008-05-25,0.80, -0.71, -6.43, 2.09, 1.56, 7.28, repro,
2008-05-26,1.27, -0.56, -4.05, 2.09, 1.59, 7.35, repro,
2008-05-27,0.93, -0.46, -7.25, 2.08, 1.57, 7.29, repro,
2008-05-28,0.40, -1.02, -5.23, 2.14, 1.61, 7.46, repro,
2008-05-29,0.95, 0.08, -6.79, 2.15, 1.61, 7.44, repro,
2008-05-30,0.32, 0.13, 1.06, 2.08, 1.56, 7.28, repro,
2008-05-31,1.45, -0.44, -9.08, 2.17, 1.65, 7.59, repro,
2008-06-01,0.04, 0.27, -3.79, 2.08, 1.56, 7.26, repro,
2008-06-02,0.81, 0.37, -11.05, 2.09, 1.57, 7.26, repro,
2008-06-03,1.05, 0.06, -3.91, 2.15, 1.63, 7.56, repro,
2008-06-04,1.61, 0.80, -2.51, 2.09, 1.57, 7.30, repro,
2008-06-05,1.24, -0.14, -6.25, 2.11, 1.58, 7.43, repro,
2008-06-06,1.51, -1.24, -2.21, 2.11, 1.59, 7.34, repro,
2008-06-07,2.42, 2.68, -8.85, 2.15, 1.65, 7.55, repro,
2008-06-08,1.32, 0.74, -10.77, 2.15, 1.61, 7.45, repro,
2008-06-09,0.64, 0.62, -1.63, 2.14, 1.60, 7.44, repro,
2008-06-10,1.46, 0.65, -6.28, 2.11, 1.57, 7.35, repro,
2008-06-11,3.36, 0.71, -11.51, 2.09, 1.56, 7.27, repro,
2008-06-12,3.56, 1.23, -14.29, 2.10, 1.58, 7.36, repro,
2008-06-13,1.52, 0.24, -10.14, 2.09, 1.56, 7.26, repro,
2008-06-14,1.25, 1.05, -9.72, 2.14, 1.59, 7.40, repro,
2008-06-15,0.66, 0.27, -4.33, 2.14, 1.60, 7.42, repro,
2008-06-16,0.28, 0.60, -5.21, 2.09, 1.56, 7.27, repro,
2008-06-17,0.37, 0.09, -6.42, 2.08, 1.57, 7.27, repro,
2008-06-18,0.73, 0.57, -10.19, 2.08, 1.56, 7.21, repro,
2008-06-19,1.41, -0.23, -11.10, 2.11, 1.62, 7.43, repro,
2008-06-20,1.47, 1.07, -12.43, 2.10, 1.58, 7.34, repro,
2008-06-21,-0.52, 0.98, -7.47, 2.11, 1.58, 7.37, repro,
2008-06-22,-0.59, -0.29, -4.95, 2.09, 1.57, 7.27, repro,
2008-06-23,0.21, 0.10, -0.90, 2.08, 1.56, 7.24, repro,
2008-06-24,1.20, 0.44, -10.84, 2.09, 1.56, 7.24, repro,
2008-06-25,1.13, 2.04, -8.15, 2.10, 1.57, 7.31, repro,
2008-06-26,2.51, 0.85, -3.84, 2.12, 1.61, 7.40, repro,
2008-06-27,2.13, -0.39, -1.32, 2.18, 1.63, 7.65, repro,
2008-06-28,2.53, -0.96, 1.07, 2.15, 1.64, 7.61, repro,
2008-06-29,-0.88, 0.52, 0.65, 2.12, 1.62, 7.40, repro,
2008-06-30,-0.47, -2.92, -0.15, 2.08, 1.56, 7.22, repro,
2008-07-01,1.09, -0.16, -5.83, 2.11, 1.57, 7.34, repro,
2008-07-02,2.44, 0.29, -1.45, 2.09, 1.56, 7.26, repro,
2008-07-03,1.47, -3.45, 4.66, 2.09, 1.57, 7.29, repro,
2008-07-04,3.68, -1.03, -4.63, 2.09, 1.56, 7.26, repro,
2008-07-05,0.72, 0.44, -4.29, 2.09, 1.56, 7.22, repro,
2008-07-06,1.56, 0.52, -1.32, 2.11, 1.57, 7.36, repro,
2008-07-07,2.17, 0.51, 0.35, 2.15, 1.63, 7.52, repro,
2008-07-08,2.35, 0.76, 1.42, 2.09, 1.56, 7.26, repro,
2008-07-09,1.21, -0.43, 2.42, 2.09, 1.57, 7.27, repro,
2008-07-10,2.03, 0.75, -1.21, 2.21, 1.68, 7.80, repro,
2008-07-11,1.97, 1.53, 0.15, 2.16, 1.60, 7.41, repro,
2008-07-12,1.57, 1.21, -9.21, 2.13, 1.58, 7.45, repro,
2008-07-13,2.28, -0.33, 1.94, 2.20, 1.71, 7.75, repro,
2008-07-14,1.32, -0.99, 4.51, 2.12, 1.58, 7.33, repro,
2008-07-15,1.11, 0.34, -10.17, 2.12, 1.59, 7.45, repro,
2008-07-16,0.83, 1.02, -4.01, 2.09, 1.57, 7.25, repro,
2008-07-17,1.96, 1.14, -7.28, 2.08, 1.56, 7.24, repro,
2008-07-18,2.33, 0.19, 0.24, 2.23, 1.61, 7.65, repro,
2008-07-19,1.09, 1.09, 0.82, 2.16, 1.58, 7.51, repro,
2008-07-20,1.40, -0.15, 3.66, 2.10, 1.56, 7.26, repro,
2008-07-21,0.99, -2.73, 4.22, 2.09, 1.57, 7.23, repro,
2008-07-22,-0.12, 0.13, -3.53, 2.09, 1.56, 7.23, repro,
2008-07-23,0.65, -0.10, -0.19, 2.14, 1.57, 7.37, repro,
2008-07-24,1.63, -0.07, 3.83, 2.09, 1.57, 7.28, repro,
2008-07-25,0.48, -0.52, 5.85, 2.10, 1.56, 7.28, repro,
2008-07-26,0.07, -0.36, 10.37, 2.08, 1.56, 7.21, repro,
2008-07-27,0.64, -0.37, 8.09, 2.08, 1.56, 7.22, repro,
2008-07-28,0.28, 0.52, 2.18, 2.17, 1.60, 7.45, repro,
2008-07-29,0.36, 0.37, 6.32, 2.22, 1.62, 7.64, repro,
2008-07-30,1.00, 0.19, 6.44, 2.17, 1.59, 7.57, repro,
2008-07-31,0.68, 0.05, 10.18, 2.07, 1.55, 7.18, repro,
2008-08-01,1.41, 1.11, 2.86, 2.08, 1.55, 7.21, repro,
2008-08-02,-0.94, 0.39, 11.90, 2.08, 1.56, 7.23, repro,
2008-08-03,1.96, -0.41, 4.25, 2.13, 1.61, 7.46, repro,
2008-08-04,1.54, 0.90, 1.14, 2.14, 1.61, 7.41, repro,
2008-08-05,2.65, -0.29, 1.75, 2.09, 1.55, 7.21, repro,
2008-08-06,-1.36, -0.09, 6.17, 2.14, 1.57, 7.36, repro,
2008-08-07,0.74, -3.06, 14.40, 2.19, 1.62, 7.51, repro,
2008-08-08,-0.17, -1.10, -0.44, 2.19, 1.64, 7.62, repro,
2008-08-09,1.77, -1.91, 7.40, 2.14, 1.57, 7.37, repro,
2008-08-10,0.79, 0.73, 1.31, 2.15, 1.56, 7.34, repro,
2008-08-11,1.40, 0.19, 2.22, 2.15, 1.57, 7.34, repro,
2008-08-12,-0.40, 1.51, 8.51, 2.12, 1.57, 7.28, repro,
2008-08-13,0.87, 0.01, 5.60, 2.14, 1.58, 7.44, repro,
2008-08-14,3.13, -0.11, 6.80, 2.22, 1.61, 7.58, repro,
2008-08-15,-0.10, -1.31, 14.08, 2.25, 1.67, 8.00, repro,
2008-08-16,2.07, 0.39, 1.39, 2.23, 1.63, 7.81, repro,
2008-08-17,0.44, 0.31, 3.19, 2.24, 1.65, 7.94, repro,
2008-08-18,-3.94, -2.34, 13.77, 2.28, 1.69, 8.19, repro,
2008-08-19,0.33, -0.62, 11.47, 2.26, 1.63, 7.87, repro,
2008-08-20,1.29, -0.48, 6.62, 2.27, 1.66, 7.91, repro,
2008-08-21,-1.91, -2.21, 9.79, 2.25, 1.64, 7.98, repro,
2008-08-22,0.51, -0.97, 10.08, 2.22, 1.65, 7.88, repro,
2008-08-23,1.51, -0.25, 4.49, 2.31, 1.71, 8.21, repro,
2008-08-24,-1.07, -1.47, 8.92, 2.67, 2.16, 10.03, repro,
2008-08-25,-0.74, -0.32, 12.70, 2.56, 1.92, 9.33, repro,
2008-08-26,-0.13, -0.54, 9.30, 2.23, 1.64, 7.88, repro,
2008-08-27,1.05, 0.56, 9.72, 2.30, 1.69, 8.29, repro,
2008-08-28,3.22, 2.47, 1.08, 2.33, 1.70, 8.03, repro,
2008-08-29,1.47, 1.64, 0.69, 2.25, 1.68, 7.99, repro,
2008-08-30,-1.02, 1.04, 15.21, 2.27, 1.67, 8.06, repro,
2008-08-31,1.63, 2.06, 8.60, 2.33, 1.70, 8.25, repro,
2008-09-01,3.28, 0.38, 4.12, 2.86, 2.01, 9.53, repro,
2008-09-02,1.90, -0.50, 0.62, 2.28, 1.68, 8.09, repro,
2008-09-03,0.51, -0.14, 5.77, 2.26, 1.70, 8.05, repro,
2008-09-04,1.49, -0.04, 8.87, 2.44, 1.84, 8.90, repro,
2008-09-05,2.86, -0.20, -2.31, 2.39, 1.73, 8.35, repro,
2008-09-06,1.97, -0.91, 2.60, 2.27, 1.67, 8.02, repro,
2008-09-07,1.18, -1.31, 6.91, 2.36, 1.72, 8.28, repro,
2008-09-08,1.48, -2.28, 11.06, 2.29, 1.69, 8.11, repro,
2008-09-09,1.77, -0.54, -2.06, 3.01, 2.17, 10.50, repro,
2008-09-10,2.73, -0.01, 4.27, 2.30, 1.71, 8.20, repro,
2008-09-11,0.66, 0.08, 7.77, 2.30, 1.69, 8.06, repro,
2008-09-12,2.03, 0.70, 5.96, 2.30, 1.72, 8.18, repro,
2008-09-13,1.49, 0.56, 9.72, 2.30, 1.69, 8.05, repro,
2008-09-14,0.86, -1.34, 11.63, 2.32, 1.70, 8.18, repro,
2008-09-15,0.56, 1.12, 3.82, 2.24, 1.68, 8.03, repro,
2008-09-16,0.20, 0.28, 4.66, 2.29, 1.77, 8.26, repro,
2008-09-17,-1.10, 2.34, -5.14, 2.42, 1.79, 8.61, repro,
2008-09-18,-2.10, -2.11, 4.53, 2.26, 1.64, 7.95, repro,
2008-09-19,-4.88, -4.65, 6.35, 2.22, 1.65, 7.85, repro,
2008-09-20,1.38, -0.31, 4.21, 2.28, 1.72, 8.19, repro,
2008-09-21,1.71, -0.62, 2.69, 2.31, 1.73, 8.32, repro,
2008-09-22,2.17, 0.84, -1.23, 2.26, 1.69, 8.01, repro,
2008-09-23,0.56, 1.30, 8.23, 2.49, 1.91, 9.04, repro,
2008-09-24,-0.16, 0.42, 11.75, 2.38, 1.76, 8.35, repro,
2008-09-25,-0.40, 0.47, 7.73, 2.28, 1.69, 8.01, repro,
2008-09-26,0.06, -0.11, 8.57, 2.31, 1.69, 8.22, repro,
2008-09-27,-0.52, -0.09, 10.33, 2.72, 2.15, 10.41, repro,
2008-09-28,1.55, 0.58, 2.67, 2.26, 1.67, 8.05, repro,
2008-09-29,-0.11, 1.19, 2.76, 2.31, 1.70, 8.20, repro,
2008-09-30,2.07, -3.23, 12.19, 2.30, 1.68, 8.27, repro,
2008-10-01,-0.87, -1.71, 9.76, 2.30, 1.68, 8.29, repro,
2008-10-02,-1.32, -0.81, 0.90, 2.35, 1.75, 8.36, repro,
2008-10-03,0.69, -0.29, 3.43, 2.29, 1.73, 8.32, repro,
2008-10-04,-0.22, 1.00, 2.52, 2.27, 1.71, 8.14, repro,
2008-10-05,0.02, -0.70, 6.43, 2.37, 1.77, 8.64, repro,
2008-10-06,1.97, 0.85, 0.94, 2.71, 2.07, 9.86, repro,
2008-10-07,-0.15, -0.47, 6.95, 2.28, 1.68, 8.10, repro,
2008-10-08,1.30, 0.63, -1.22, 2.82, 2.24, 10.52, repro,
2008-10-09,2.77, 1.22, 1.30, 2.44, 1.93, 9.09, repro,
2008-10-10,0.99, -1.06, -1.06, 2.40, 1.82, 8.82, repro,
2008-10-11,-0.01, -2.42, -1.42, 2.35, 1.77, 8.46, repro,
2008-10-12,-1.31, -1.09, 3.21, 2.29, 1.77, 8.46, repro,
2008-10-13,-0.02, 0.40, 4.76, 2.26, 1.71, 8.25, repro,
2008-10-14,0.08, 0.77, -2.52, 2.17, 1.64, 7.80, repro,
2008-10-15,-0.06, 1.16, -2.19, 2.34, 1.74, 8.41, repro,
2008-10-16,0.61, 1.03, -0.83, 2.28, 1.72, 8.30, repro,
2008-10-17,0.84, 0.97, -6.37, 2.29, 1.70, 8.34, repro,
2008-10-18,1.39, 0.18, 0.02, 2.25, 1.69, 8.16, repro,
2008-10-19,-1.26, -0.25, -0.38, 2.27, 1.68, 8.17, repro,
2008-10-20,-0.61, -0.65, 8.26, 2.24, 1.69, 8.08, repro,
2008-10-21,-1.31, 0.61, 4.51, 2.45, 1.88, 9.01, repro,
2008-10-22,0.81, 0.57, 1.04, 2.25, 1.67, 8.01, repro,
2008-10-23,0.66, 0.37, 2.94, 2.26, 1.70, 8.12, repro,
2008-10-24,1.01, 0.48, 3.41, 2.22, 1.66, 7.86, repro,
2008-10-25,0.27, -0.01, 6.77, 2.22, 1.69, 8.24, repro,
2008-10-26,1.49, 1.20, -7.32, 2.24, 1.68, 8.18, repro,
2008-10-27,0.85, -0.01, -4.37, 2.24, 1.67, 8.12, repro,
2008-10-28,2.35, 1.53, -2.39, 2.38, 1.73, 8.48, repro,
2008-10-29,-1.07, -0.03, 1.94, 2.35, 1.75, 8.56, repro,
2008-10-30,-4.45, 1.48, -0.02, 2.22, 1.68, 8.00, repro,
2008-10-31,-5.48, 6.51, -18.06, 2.31, 1.75, 8.35, repro,
2008-11-01,-2.48, 2.00, -10.34, 2.25, 1.73, 8.26, repro,
2008-11-02,-0.74, -0.55, 6.74, 2.33, 1.82, 8.60, repro,
2008-11-03,-1.55, 1.96, 9.23, 2.74, 2.46, 11.05, repro,
2008-11-04,0.25, 0.44, 13.82, 2.33, 1.82, 8.65, repro,
2008-11-05,1.16, -0.19, 4.39, 2.96, 2.09, 10.53, repro,
2008-11-06,0.40, -0.22, -3.95, 2.44, 1.95, 9.49, repro,
2008-11-07,0.85, 1.76, -6.94, 2.36, 1.80, 8.66, repro,
2008-11-08,-0.76, 0.50, -5.56, 2.28, 1.76, 8.36, repro,
2008-11-09,2.03, 0.48, -5.47, 2.31, 1.78, 8.71, repro,